0 HST
1 20580U 90037B 25289.10108369 .00009399 00000-0 33704-3 0 9998
2 20580 28.4692 304.4849 0001822 318.0685 41.9770 15.26938637751173
0 ISS (ZARYA)
1 25544U 98067A 25290.17015183 .00013085 00000-0 24376-3 0 9996
2 25544 51.6334 62.5333 0004260 300.9101 59.1468 15.49173581534089
0 CXO
1 25867U 99040B 25291.08347916 .00000750 00000-0 00000-0 0 9999
2 25867 51.9999 124.5500 8232718 310.6504 0.1694 0.37810018 16408